Weather History for KOZW - August, 2012

Change the Weather History Date:

Friday, August 3, 2012

  Actual Average Record
Temperature  
Mean Temperature 80 °F -  
Max Temperature 93 °F 81 °F 93 °F (2012)
Min Temperature 68 °F 58 °F 53 °F (2008)
Cooling Degree Days 16    
Growing Degree Days 30 (Base 50)    
Moisture  
Dew Point 59 °F    
Average Humidity 53    
Maximum Humidity 88    
Minimum Humidity 22    
Precipitation  
Precipitation 0.00 in - - ()
Sea Level Pressure  
Sea Level Pressure 29.94 in    
Wind  
Wind Speed 2 mph (SE)    
Max Wind Speed 10 mph    
Max Gust Speed -    
Visibility 10 miles    
Events      
Averages and records for this station are not official NWS values.
T = Trace of Precipitation, MM = Missing Value Source: NWS Daily Summary

Daily Weather History Graph

Daily Weather History Graph

Search for Another Location

Airport or City:

Trip Planner

Search our weather history database for the weather conditions in past years. The results will help you decide how hot, cold, wet, or windy it might be!

Date:

Astronomy

Aug. 03, 2012 Rise Set
Actual Time 6:30 AM EDT 8:53 PM EDT
Civil Twilight 5:58 AM EDT 9:24 PM EDT
Nautical Twilight 5:19 AM EDT 10:03 PM EDT
Astronomical Twilight 4:35 AM EDT 10:47 PM EDT
Moon 9:26 PM EDT (8/3) 8:16 AM EDT (8/3)
Length of Visible Light 15h 26m
Length of Day
14h 22m
Full, 97% of the Moon is Illuminated
Aug 3
Full
Aug 9
Last Quarter
Aug 17
New
Aug 24
First Quarter
Aug 31
Full

Hourly Weather History & Observations

Time (EDT) Temp. Heat Index Dew Point Humidity Pressure Visibility Wind Dir Wind Speed Gust Speed Precip Events Conditions
12:15 AM 74.3 °F - 67.3 °F 79% 29.91 in 10.0 mi Calm Calm - N/A   Clear
12:34 AM 74.3 °F - 67.1 °F 78% 29.91 in 10.0 mi Calm Calm - N/A   Clear
12:55 AM 74.1 °F - 66.9 °F 78% 29.91 in 10.0 mi Calm Calm - N/A   Clear
1:34 AM 72.5 °F - 66.9 °F 83% 29.91 in 10.0 mi Calm Calm - N/A   Clear
1:55 AM 72.3 °F - 66.7 °F 83% 29.91 in 10.0 mi Calm Calm - N/A   Clear
2:15 AM 72.5 °F - 66.9 °F 83% 29.91 in 10.0 mi Calm Calm - N/A   Clear
2:34 AM 71.2 °F - 66.2 °F 84% 29.92 in 10.0 mi Calm Calm - N/A   Clear
2:55 AM 71.6 °F - 67.1 °F 86% 29.92 in 10.0 mi Calm Calm - N/A   Clear
3:15 AM 72.0 °F - 67.5 °F 86% 29.93 in 10.0 mi Calm Calm - N/A   Mostly Cloudy
3:35 AM 72.3 °F - 67.1 °F 84% 29.93 in 10.0 mi Calm Calm - N/A   Overcast
3:55 AM 71.6 °F - 66.9 °F 85% 29.92 in 10.0 mi Calm Calm - N/A   Scattered Clouds
4:15 AM 70.5 °F - 66.0 °F 86% 29.93 in 10.0 mi Calm Calm - N/A   Clear
4:35 AM 70.0 °F - 66.0 °F 87% 29.93 in 10.0 mi Calm Calm - N/A   Clear
4:55 AM 69.8 °F - 65.1 °F 85% 29.93 in 10.0 mi NE 3.5 mph - N/A   Clear
5:14 AM 70.5 °F - 64.9 °F 82% 29.92 in 10.0 mi Calm Calm - N/A   Clear
5:35 AM 69.8 °F - 64.4 °F 83% 29.92 in 10.0 mi Calm Calm - N/A   Clear
5:55 AM 69.1 °F - 64.0 °F 84% 29.92 in 10.0 mi Calm Calm - N/A   Clear
6:14 AM 68.9 °F - 64.4 °F 86% 29.93 in 10.0 mi Calm Calm - N/A   Clear
6:35 AM 68.4 °F - 63.9 °F 85% 29.93 in 10.0 mi Calm Calm - N/A   Clear
6:54 AM 68.2 °F - 64.4 °F 88% 29.93 in 7.0 mi Calm Calm - N/A   Clear
7:15 AM 68.7 °F - 64.4 °F 86% 29.93 in 10.0 mi Calm Calm - N/A   Clear
7:35 AM 69.4 °F - 65.1 °F 86% 29.93 in 7.0 mi Calm Calm - N/A   Clear
7:54 AM 70.5 °F - 65.5 °F 84% 29.93 in 10.0 mi Calm Calm - N/A   Clear
8:15 AM 73.0 °F - 66.7 °F 81% 29.94 in 10.0 mi Calm Calm - N/A   Clear
8:35 AM 75.7 °F - 66.0 °F 72% 29.95 in 10.0 mi East 4.6 mph - N/A   Clear
8:54 AM 77.0 °F - 64.2 °F 65% 29.95 in 10.0 mi ESE 6.9 mph - N/A   Clear
9:15 AM 78.8 °F - 63.9 °F 60% 29.95 in 10.0 mi ESE 6.9 mph - N/A   Clear
9:35 AM 80.1 °F 81.7 °F 64.0 °F 58% 29.95 in 10.0 mi ESE 4.6 mph - N/A   Clear
9:55 AM 81.9 °F 83.1 °F 63.0 °F 53% 29.96 in 10.0 mi ESE 5.8 mph - N/A   Clear
10:15 AM 82.9 °F 83.7 °F 61.9 °F 49% 29.96 in 10.0 mi ESE 5.8 mph - N/A   Clear
10:34 AM 83.7 °F 84.1 °F 61.3 °F 47% 29.96 in 10.0 mi ESE 5.8 mph - N/A   Clear
10:55 AM 84.4 °F 84.8 °F 61.5 °F 46% 29.96 in 10.0 mi SSE 5.8 mph - N/A   Clear
11:15 AM 85.8 °F 85.7 °F 60.3 °F 42% 29.96 in 10.0 mi SE 6.9 mph - N/A   Clear
11:35 AM 86.5 °F 86.5 °F 60.6 °F 42% 29.97 in 10.0 mi SSE 6.9 mph - N/A   Clear
11:55 AM 87.3 °F 87.2 °F 60.8 °F 41% 29.97 in 10.0 mi South 4.6 mph - N/A   Clear
12:14 PM 87.8 °F 87.1 °F 59.2 °F 38% 29.97 in 10.0 mi South 5.8 mph - N/A   Clear
12:35 PM 88.5 °F 87.3 °F 57.6 °F 35% 29.96 in 10.0 mi Calm Calm - N/A   Clear
12:55 PM 89.2 °F 88.2 °F 57.9 °F 35% 29.96 in 10.0 mi South 3.5 mph - N/A   Clear
1:14 PM 89.4 °F 88.4 °F 58.1 °F 35% 29.96 in 10.0 mi SSE 9.2 mph - N/A   Clear
1:35 PM 90.7 °F 88.5 °F 54.5 °F 29% 29.95 in 10.0 mi South 4.6 mph - N/A   Scattered Clouds
1:55 PM 91.0 °F - 50.9 °F 25% 29.95 in 10.0 mi SSE 6.9 mph - N/A   Clear
2:14 PM 91.2 °F - 49.8 °F 24% 29.95 in 10.0 mi Calm Calm - N/A   Clear
2:35 PM 91.8 °F - 48.6 °F 23% 29.95 in 10.0 mi SSW 3.5 mph - N/A   Clear
2:55 PM 92.1 °F - 48.4 °F 22% 29.94 in 10.0 mi South 3.5 mph - N/A   Clear
3:14 PM 93.0 °F - 48.9 °F 22% 29.94 in 10.0 mi Calm Calm - N/A   Clear
3:35 PM 92.7 °F - 49.5 °F 23% 29.94 in 10.0 mi SE 8.1 mph - N/A   Clear
3:55 PM 92.7 °F - 48.9 °F 22% 29.94 in 7.0 mi Calm Calm - N/A   Clear
4:15 PM 92.7 °F - 50.5 °F 24% 29.95 in 10.0 mi SSE 6.9 mph - N/A   Mostly Cloudy
4:35 PM 91.9 °F - 50.5 °F 24% 29.94 in 10.0 mi East 4.6 mph - N/A   Scattered Clouds
4:54 PM 92.5 °F - 50.5 °F 24% 29.94 in 10.0 mi Calm Calm - N/A   Scattered Clouds
5:15 PM 91.8 °F - 52.0 °F 26% 29.93 in 10.0 mi SSE 5.8 mph - N/A   Scattered Clouds
5:35 PM 92.8 °F - 52.0 °F 25% 29.93 in 10.0 mi SSE 4.6 mph - N/A   Clear
5:54 PM 92.3 °F 89.9 °F 53.4 °F 27% 29.92 in 10.0 mi East 9.2 mph - N/A   Clear
6:15 PM 91.6 °F 89.1 °F 53.6 °F 27% 29.93 in 10.0 mi East 8.1 mph - N/A   Clear
6:35 PM 91.4 °F 88.9 °F 53.1 °F 27% 29.93 in 10.0 mi East 9.2 mph - N/A   Scattered Clouds
6:54 PM 90.3 °F - 52.5 °F 27% 29.93 in 10.0 mi East 10.4 mph - N/A   Scattered Clouds
7:15 PM 89.8 °F 87.5 °F 53.6 °F 29% 29.93 in 10.0 mi East 6.9 mph - N/A   Clear
7:35 PM 88.7 °F 86.7 °F 54.5 °F 31% 29.94 in 10.0 mi East 5.8 mph - N/A   Clear
7:54 PM 88.0 °F 85.7 °F 53.2 °F 30% 29.94 in 10.0 mi East 8.1 mph - N/A   Clear
8:15 PM 86.9 °F 84.9 °F 53.8 °F 32% 29.94 in 10.0 mi ESE 8.1 mph - N/A   Clear
8:35 PM 86.0 °F 84.2 °F 54.0 °F 33% 29.94 in 10.0 mi ESE 6.9 mph - N/A   Clear
8:55 PM 84.4 °F 83.1 °F 54.7 °F 36% 29.94 in 10.0 mi ESE 5.8 mph - N/A   Clear
9:34 PM 82.0 °F 81.5 °F 55.8 °F 40% 29.95 in 10.0 mi ESE 3.5 mph - N/A   Clear
9:55 PM 81.0 °F 80.8 °F 55.9 °F 42% 29.96 in 10.0 mi ESE 5.8 mph - N/A   Clear
10:15 PM 79.5 °F - 57.2 °F 46% 29.97 in 10.0 mi SE 6.9 mph - N/A   Clear
10:34 PM 80.1 °F 80.4 °F 56.8 °F 45% 29.97 in 10.0 mi SSE 6.9 mph - N/A   Clear
10:55 PM 77.7 °F - 58.1 °F 51% 29.97 in 10.0 mi ESE 5.8 mph - N/A   Clear
11:15 PM 77.9 °F - 58.3 °F 51% 29.97 in 10.0 mi ESE 6.9 mph - N/A   Clear
11:34 PM 76.5 °F - 59.0 °F 55% 29.97 in 10.0 mi SE 6.9 mph - N/A   Clear
11:55 PM 76.5 °F - 59.9 °F 56% 29.97 in 10.0 mi ESE 6.9 mph - N/A   Clear